Location: Pasarilla del Rebollar
(40.6790°N, 5.0062°W)
Time: 10:39:02
(UTC+00:00)

Cosmos 909 Rocket - Pass Details

Date: 22 April 2026
Orbit: 990 x 2089 km, 65.9° (Epoch: 15 May)

Event Time Altitude Azimuth Distance (km) Brightness Sun altitude
Exits shadow 01:37:57 57° 350° (N) 1,162 4.5 -34.1°
Drops below altitude 10° 01:43:09 10° 26° (NNE) 2,778 7.2 -33.7°
Sets 01:45:47 0° 30° (NNE) 3,775 8.2 -33.4°
